AAY602 KIND-KLAX

Flight info

Callsign AAY602
Flight time N/A
Altitude 38000
Route ROCKY1 SPI MCI HGO DVC PEEWE Q98 HAKMN ANJLL4
Aircraft A320/M-SDE3FGHIRWY/LB1

Departure

Time 2026-05-06 00:39
Airport Indianapolis International Airport (KIND)

Arrival

Time N/A
Airport Los Angeles International Airport (KLAX)
Time Latitude Longitude Altitude Speed Heading
2026-05-06 00:15 39.71611 -86.29999 785 ft 0 kts 127°
2026-05-06 00:26 39.71621 -86.30016 785 ft 2 kts 127°
2026-05-06 00:26 39.71639 -86.30036 784 ft 4 kts 172°
2026-05-06 00:27 39.71663 -86.30037 784 ft 2 kts 181°
2026-05-06 00:27 39.71683 -86.30036 783 ft 4 kts 181°
2026-05-06 00:27 39.71710 -86.30035 783 ft 4 kts 183°
2026-05-06 00:27 39.71737 -86.30032 782 ft 4 kts 191°
2026-05-06 00:28 39.71755 -86.30027 782 ft 4 kts 222°
2026-05-06 00:28 39.71764 -86.30013 782 ft 4 kts 223°
2026-05-06 00:28 39.71782 -86.29988 782 ft 4 kts 229°
2026-05-06 00:28 39.71801 -86.29963 783 ft 4 kts 224°
2026-05-06 00:29 39.71821 -86.29940 784 ft 4 kts 220°
2026-05-06 00:29 39.71824 -86.29936 784 ft 0 kts 220°
2026-05-06 00:32 39.71816 -86.29945 783 ft 4 kts 222°
2026-05-06 00:32 39.71798 -86.29993 782 ft 7 kts 265°
2026-05-06 00:32 39.71825 -86.30058 780 ft 10 kts 313°
2026-05-06 00:32 39.71875 -86.30126 778 ft 11 kts 311°
2026-05-06 00:33 39.71868 -86.30214 777 ft 11 kts 229°
2026-05-06 00:33 39.71820 -86.30277 777 ft 10 kts 224°
2026-05-06 00:33 39.71768 -86.30343 776 ft 11 kts 224°
2026-05-06 00:33 39.71709 -86.30418 776 ft 12 kts 225°
2026-05-06 00:34 39.71652 -86.30492 777 ft 11 kts 226°
2026-05-06 00:34 39.71602 -86.30554 778 ft 9 kts 223°
2026-05-06 00:34 39.71554 -86.30614 778 ft 11 kts 224°
2026-05-06 00:34 39.71498 -86.30697 779 ft 13 kts 232°
2026-05-06 00:35 39.71427 -86.30779 781 ft 14 kts 222°
2026-05-06 00:35 39.71346 -86.30880 780 ft 19 kts 224°
2026-05-06 00:35 39.71248 -86.31005 779 ft 20 kts 224°
2026-05-06 00:35 39.71142 -86.31140 775 ft 23 kts 224°
2026-05-06 00:36 39.71039 -86.31270 776 ft 18 kts 224°
2026-05-06 00:36 39.70962 -86.31368 775 ft 14 kts 224°
2026-05-06 00:36 39.70897 -86.31452 777 ft 12 kts 224°
2026-05-06 00:36 39.70838 -86.31527 779 ft 12 kts 224°
2026-05-06 00:37 39.70766 -86.31618 779 ft 16 kts 224°
2026-05-06 00:37 39.70685 -86.31720 780 ft 16 kts 225°
2026-05-06 00:37 39.70607 -86.31820 779 ft 16 kts 224°
2026-05-06 00:37 39.70551 -86.31924 777 ft 11 kts 275°
2026-05-06 00:38 39.70573 -86.31971 778 ft 3 kts 313°
2026-05-06 00:38 39.70595 -86.32001 778 ft 10 kts 314°
2026-05-06 00:38 39.70667 -86.32038 778 ft 11 kts 28°
2026-05-06 00:38 39.70724 -86.31972 780 ft 14 kts 44°
2026-05-06 00:39 39.70942 -86.31697 780 ft 82 kts 44°
2026-05-06 00:39 39.71517 -86.30963 782 ft 145 kts 44°
2026-05-06 00:39 39.72331 -86.29914 1058 ft 175 kts 43°
2026-05-06 00:39 39.73222 -86.28813 1935 ft 176 kts 41°
2026-05-06 00:40 39.74089 -86.27686 2836 ft 178 kts 41°
2026-05-06 00:40 39.74981 -86.26508 3184 ft 194 kts 41°
2026-05-06 00:40 39.75991 -86.25185 3398 ft 219 kts 42°
2026-05-06 00:40 39.77122 -86.23700 3717 ft 242 kts 43°
2026-05-06 00:41 39.78346 -86.22088 4139 ft 261 kts 43°
2026-05-06 00:41 39.79653 -86.20356 4785 ft 273 kts 44°
2026-05-06 00:41 39.81003 -86.18569 5480 ft 280 kts 44°
2026-05-06 00:41 39.82402 -86.16726 6141 ft 291 kts 44°
2026-05-06 00:42 39.83837 -86.14850 6755 ft 299 kts 44°
2026-05-06 00:42 39.85471 -86.13150 7406 ft 303 kts 25°
2026-05-06 00:42 39.87468 -86.12348 8090 ft 301 kts 359°
2026-05-06 00:42 39.89514 -86.12614 8801 ft 294 kts 335°
2026-05-06 00:43 39.91298 -86.13836 9519 ft 285 kts 313°
2026-05-06 00:43 39.92562 -86.15753 10249 ft 274 kts 292°
2026-05-06 00:43 39.93190 -86.18009 10968 ft 268 kts 275°
2026-05-06 00:43 39.93204 -86.20493 11166 ft 284 kts 259°
2026-05-06 00:44 39.92870 -86.23176 11294 ft 307 kts 258°
2026-05-06 00:44 39.92512 -86.26008 11470 ft 324 kts 259°
2026-05-06 00:44 39.92148 -86.28943 12016 ft 330 kts 259°
2026-05-06 00:44 39.91793 -86.31874 12698 ft 331 kts 259°
2026-05-06 00:45 39.91439 -86.34843 13420 ft 331 kts 259°
2026-05-06 00:45 39.91087 -86.37816 14075 ft 332 kts 260°
2026-05-06 00:45 39.90732 -86.40799 14627 ft 335 kts 260°
2026-05-06 00:45 39.90370 -86.43809 15138 ft 338 kts 260°
2026-05-06 00:46 39.90003 -86.46850 15676 ft 341 kts 260°
2026-05-06 00:46 39.89636 -86.49876 16174 ft 344 kts 260°
2026-05-06 00:46 39.89256 -86.52981 16671 ft 348 kts 261°
2026-05-06 00:46 39.88875 -86.56111 17159 ft 351 kts 261°
2026-05-06 00:47 39.88493 -86.59231 17702 ft 353 kts 261°
2026-05-06 00:47 39.88103 -86.62397 18221 ft 355 kts 261°
2026-05-06 00:47 39.87708 -86.65593 18630 ft 358 kts 261°
2026-05-06 00:47 39.87313 -86.68818 19029 ft 361 kts 261°
2026-05-06 00:48 39.86914 -86.72058 19430 ft 364 kts 261°
2026-05-06 00:48 39.86513 -86.75321 19823 ft 367 kts 260°
2026-05-06 00:48 39.86105 -86.78608 20215 ft 369 kts 260°
2026-05-06 00:48 39.85697 -86.81887 20597 ft 372 kts 260°
2026-05-06 00:49 39.85279 -86.85227 20979 ft 375 kts 260°
2026-05-06 00:49 39.84854 -86.88595 21357 ft 377 kts 260°
2026-05-06 00:49 39.84429 -86.91980 21732 ft 380 kts 260°
2026-05-06 00:49 39.84002 -86.95397 22107 ft 383 kts 260°
2026-05-06 00:50 39.83572 -86.98825 22487 ft 385 kts 260°
2026-05-06 00:50 39.83143 -87.02234 22845 ft 387 kts 260°
2026-05-06 00:50 39.82710 -87.05705 23189 ft 390 kts 260°
2026-05-06 00:50 39.82271 -87.09197 23526 ft 392 kts 260°
2026-05-06 00:51 39.81827 -87.12711 23842 ft 394 kts 260°
2026-05-06 00:51 39.81376 -87.16236 24175 ft 394 kts 260°
2026-05-06 00:51 39.80926 -87.19757 24525 ft 395 kts 260°
2026-05-06 00:51 39.80471 -87.23288 24863 ft 396 kts 260°
2026-05-06 00:52 39.80020 -87.26783 25185 ft 396 kts 261°
2026-05-06 00:52 39.79564 -87.30324 25504 ft 397 kts 261°
2026-05-06 00:52 39.79107 -87.33865 25826 ft 397 kts 261°
2026-05-06 00:52 39.78650 -87.37403 26183 ft 396 kts 261°
2026-05-06 00:53 39.78194 -87.40929 26515 ft 396 kts 261°
2026-05-06 00:53 39.77736 -87.44464 26797 ft 396 kts 261°
2026-05-06 00:53 39.77275 -87.47989 27175 ft 394 kts 262°
2026-05-06 00:53 39.76815 -87.51493 27564 ft 392 kts 262°
2026-05-06 00:54 39.76357 -87.54973 28045 ft 388 kts 262°
2026-05-06 00:54 39.75906 -87.58420 28520 ft 384 kts 262°
2026-05-06 00:54 39.75466 -87.61787 28989 ft 381 kts 263°
2026-05-06 00:54 39.75022 -87.65172 29455 ft 378 kts 263°
2026-05-06 00:55 39.74582 -87.68518 29915 ft 374 kts 263°
2026-05-06 00:55 39.74142 -87.71841 30309 ft 371 kts 263°
2026-05-06 00:55 39.73710 -87.75129 30722 ft 367 kts 263°
2026-05-06 00:55 39.73280 -87.78381 31112 ft 364 kts 263°
2026-05-06 00:56 39.72848 -87.81618 31484 ft 361 kts 263°
2026-05-06 00:56 39.72419 -87.84823 31855 ft 359 kts 263°
2026-05-06 00:56 39.71991 -87.88010 32215 ft 356 kts 263°
2026-05-06 00:56 39.71572 -87.91137 32564 ft 354 kts 263°
2026-05-06 00:57 39.71148 -87.94284 32919 ft 352 kts 263°